Location: Austin
(30.3000°N, 97.7500°W)
Time: 01:03:01
(UTC-05:00)

Cosmos 923 Rocket - Pass Details

Date: 15 May 2024
Orbit: 755 x 784 km, 74.0° (Epoch: 29 May)

Event Time Altitude Azimuth Distance (km) Brightness Sun altitude
Exits shadow 22:26:04 46° 192° (SSW) 1,029 4.4 -24.0°
Maximum altitude 22:27:42 88° 105° (ESE) 781 3.9 -24.3°
Drops below altitude 10° 22:33:01 10° 17° (NNE) 2,336 6.8 -25.1°
Sets 22:35:25 0° 17° (NNE) 3,270 7.6 -25.5°
